Weather History for EGTE - November, 2013

Change the Weather History Date:

Thursday, November 7, 2013

  Actual Average Record
Temperature  
Mean Temperature 48 °F -  
Max Temperature 52 °F 50 °F 59 °F (2003)
Min Temperature 44 °F 38 °F 35 °F (2006)
Degree Days  
Heating Degree Days 17    
Moisture  
Dew Point 45 °F    
Average Humidity 86    
Maximum Humidity 100    
Minimum Humidity 69    
Precipitation  
Precipitation 0.00 in - - ()
Sea Level Pressure  
Sea Level Pressure 29.75 in    
Wind  
Wind Speed 5 mph ()    
Max Wind Speed 10 mph    
Max Gust Speed -    
Visibility 6.2 miles    
Events      
Averages and records for this station are not official NWS values.
T = Trace of Precipitation, MM = Missing Value Source: Averaged Metar Reports

Daily Weather History Graph

Daily Weather History Graph

Search for Another Location

Airport or City:

Trip Planner

Search our weather history database for the weather conditions in past years. The results will help you decide how hot, cold, wet, or windy it might be!

Date:

Astronomy

Nov. 07, 2013 Rise Set
Actual Time 7:15 AM GMT 4:38 PM GMT
Civil Twilight 6:40 AM GMT 5:13 PM GMT
Nautical Twilight 6:00 AM GMT 5:52 PM GMT
Astronomical Twilight 5:22 AM GMT 6:31 PM GMT
Moon 11:18 AM GMT (11/7) 8:27 PM GMT (11/7)
Length of Visible Light 10h 33m
Length of Day
9h 22m
Waxing Crescent, 20% of the Moon is Illuminated
Nov 7
Waxing Crescent
Nov 10
First Quarter
Nov 17
Full
Nov 25
Last Quarter
Dec 3
New

Hourly Weather History & Observations

Time (GMT) Temp. Windchill Dew Point Humidity Pressure Visibility Wind Dir Wind Speed Gust Speed Precip Events Conditions
12:00 AM 53 °F - 51 °F 90%  in - Calm Calm - -  
12:20 AM 53.6 °F - 51.8 °F 94% 29.62 in 6.2 mi West 10.4 mph - N/A   Scattered Clouds
12:50 AM 53.6 °F - 50.0 °F 88% 29.62 in 6.2 mi West 8.1 mph - N/A   Scattered Clouds
1:20 AM 51.8 °F - 50.0 °F 94% 29.65 in 6.2 mi West 6.9 mph - N/A   Scattered Clouds
1:50 AM 51.8 °F - 50.0 °F 94% 29.65 in 6.2 mi West 5.8 mph - N/A   Scattered Clouds
6:00 AM 46 °F - 45 °F 96%  in - Calm Calm - -  
6:20 AM 48.2 °F - 46.4 °F 93% 29.71 in 6.2 mi SW 5.8 mph - N/A   Scattered Clouds
6:50 AM 48.2 °F - 46.4 °F 93% 29.71 in 6.2 mi WSW 4.6 mph - N/A   Partly Cloudy
7:20 AM 48.2 °F - 46.4 °F 93% 29.74 in 6.2 mi SW 3.5 mph - N/A   Partly Cloudy
7:50 AM 46.4 °F - 44.6 °F 93% 29.74 in 6.2 mi North 2.3 mph - N/A   Partly Cloudy
8:20 AM 46.4 °F 45.2 °F 44.6 °F 93% 29.74 in 6.2 mi SSE 3.5 mph - N/A   Partly Cloudy
8:50 AM 46.4 °F - 46.4 °F 100% 29.74 in 6.2 mi South 2.3 mph - N/A   Partly Cloudy
9:00 AM 48 °F - 47 °F 95%  in - Calm Calm - -  
9:20 AM 48.2 °F - 46.4 °F 93% 29.77 in 6.2 mi SSW 2.3 mph - N/A   Partly Cloudy
9:50 AM 48.2 °F - 46.4 °F 93% 29.77 in 6.2 mi SSW 3.5 mph - N/A   Partly Cloudy
10:20 AM 50.0 °F - 46.4 °F 87% 29.77 in 6.2 mi SSW 4.6 mph - N/A   Partly Cloudy
10:50 AM 50.0 °F - 44.6 °F 82% 29.77 in 6.2 mi SW 4.6 mph - N/A   Partly Cloudy
11:20 AM 50.0 °F - 44.6 °F 82% 29.77 in - SSW 5.8 mph - N/A   Clear
11:50 AM 51.8 °F - 44.6 °F 76% 29.77 in - SW 4.6 mph - N/A   Clear
12:00 PM 52 °F - 45 °F 69%  in - Calm Calm - -  
12:20 PM 51.8 °F - 44.6 °F 76% 29.77 in 6.2 mi SW 6.9 mph - N/A   Partly Cloudy
12:50 PM 51.8 °F - 42.8 °F 71% 29.77 in 6.2 mi SW 8.1 mph - N/A   Partly Cloudy
1:20 PM 51.8 °F - 42.8 °F 71% 29.77 in 6.2 mi SW 6.9 mph - N/A   Partly Cloudy
1:50 PM 51.8 °F - 44.6 °F 76% 29.77 in 6.2 mi SW 6.9 mph - N/A   Partly Cloudy
2:20 PM 51.8 °F - 44.6 °F 76% 29.74 in 6.2 mi SW 8.1 mph - N/A   Partly Cloudy
2:50 PM 51.8 °F - 44.6 °F 76% 29.77 in 6.2 mi WSW 6.9 mph - N/A   Partly Cloudy
3:00 PM 52 °F - 45 °F 70%  in - Calm Calm - -  
3:20 PM 51.8 °F - 44.6 °F 76% 29.74 in 6.2 mi WSW 4.6 mph - N/A   Partly Cloudy
3:50 PM 51.8 °F - 44.6 °F 76% 29.74 in 6.2 mi SSW 5.8 mph - N/A   Partly Cloudy
4:20 PM 50.0 °F - 44.6 °F 82% 29.77 in 6.2 mi SW 5.8 mph - N/A   Partly Cloudy
4:50 PM 50.0 °F - 44.6 °F 82% 29.77 in 6.2 mi South 3.5 mph - N/A   Partly Cloudy
5:20 PM 48.2 °F - 44.6 °F 87% 29.77 in 6.2 mi SSW 5.8 mph - N/A   Partly Cloudy
5:50 PM 48.2 °F - 44.6 °F 87% 29.77 in 6.2 mi South 4.6 mph - N/A   Partly Cloudy
6:00 PM 48 °F - 44 °F 81%  in - Calm Calm - -  
6:20 PM 48.2 °F - 44.6 °F 87% 29.77 in 6.2 mi South 5.8 mph - N/A   Partly Cloudy
6:50 PM 48.2 °F - 44.6 °F 87% 29.77 in 6.2 mi South 4.6 mph - N/A   Partly Cloudy
7:20 PM 46.4 °F 44.3 °F 44.6 °F 93% 29.77 in 6.2 mi South 4.6 mph - N/A   Partly Cloudy
7:50 PM 46.4 °F 44.3 °F 42.8 °F 87% 29.77 in 6.2 mi SSW 4.6 mph - N/A   Partly Cloudy
8:20 PM 46.4 °F 45.2 °F 42.8 °F 87% 29.77 in 6.2 mi Variable 3.5 mph - N/A   Mostly Cloudy
8:50 PM 46.4 °F - 42.8 °F 87% 29.77 in 6.2 mi Variable 1.2 mph - N/A   Scattered Clouds
9:00 PM 45 °F - 42 °F 87%  in - Calm Calm - -  
9:20 PM 46.4 °F 45.2 °F 42.8 °F 87% 29.77 in 6.2 mi Variable 3.5 mph - N/A   Scattered Clouds
9:50 PM 46.4 °F 45.2 °F 42.8 °F 87% 29.77 in 6.2 mi Variable 3.5 mph - N/A   Scattered Clouds
10:20 PM 46.4 °F 44.3 °F 42.8 °F 87% 29.77 in 6.2 mi SE 4.6 mph - N/A   Partly Cloudy
10:50 PM 46.4 °F 45.2 °F 42.8 °F 87% 29.77 in - Variable 3.5 mph - N/A   Clear
11:20 PM 44.6 °F 42.2 °F 42.8 °F 93% 29.77 in - South 4.6 mph - N/A   Clear
11:50 PM 44.6 °F 42.2 °F 42.8 °F 93% 29.77 in - SW 4.6 mph - N/A   Clear